Date String (YYYY-MM-DD hh:mm:ss) UTC,Instrument flags,absolute air pressure of the measurement (hPa),sample flow rate (lpm),inlet stack bypass flow (lpm),air temperature of the measurement (°C),ambient temperature measured by the external sensor (°C),aerosol sample conditioner tube jacket temperature (°C),OPC LED temperature (°C),internal box temperature (°C),relative humidity of the measurement (%),span deviation,mass concentration of particles derived from Lorenz-Mie calculation of OPC scattering (μg/m³),mass concentration of particles derived from Lorenz-Mie calculation of OPC scattering (μg/m³),mass concentration of particles derived from Lorenz-Mie calculation of OPC scattering (μg/m³)
DateTimeUTC,F1_M11,P_M11,Q1_M11,Q2_M11,T1_M11,T2_M11,T3_M11,T4_M11,T5_M11,U1_M11,ZSPAN_M11,X2_M11,X0_M11,X1_M11
2023-08-22 18:00:00,SystemResetWarning,0836.4,5.00,000.00,027.4,024.5,000.0,035.5,028.9,27.4,0000.4,0009.44,0022.74,0007.67
2023-08-22 18:01:00,SystemResetWarning,0836.4,5.00,000.00,027.3,024.8,000.0,035.6,029.0,27.7,0000.5,0009.53,0023.42,0007.67
2023-08-22 18:02:00,SystemResetWarning,0836.4,5.00,000.00,027.4,025.3,000.0,035.6,029.1,27.2,0000.5,0009.54,0023.50,0007.66
2023-08-22 18:03:00,SystemResetWarning,0836.4,5.00,000.00,027.4,025.7,000.0,035.7,029.2,27.0,0000.9,0009.53,0023.22,0007.68
2023-08-22 18:04:00,SystemResetWarning,0836.4,5.00,000.00,027.5,025.7,000.0,035.7,029.2,27.1,0001.1,0009.51,0022.95,0007.69
2023-08-22 18:05:00,SystemResetWarning,0836.4,4.99,000.00,027.4,024.5,000.0,035.6,028.9,27.1,0000.8,0009.49,0022.83,0007.71
2023-08-22 18:06:00,SystemResetWarning,0836.4,5.02,000.00,027.4,024.0,000.0,035.5,028.8,27.4,0000.8,0009.51,0021.81,0007.72
2023-08-22 18:07:00,SystemResetWarning,0836.4,5.00,000.00,027.3,024.4,000.0,035.5,028.8,28.3,0000.9,0009.51,0020.68,0007.74
2023-08-22 18:08:00,SystemResetWarning,0836.4,5.00,000.00,027.3,024.8,000.0,035.6,028.9,29.2,0001.0,0009.46,0020.49,0007.73
2023-08-22 18:09:00,SystemResetWarning,0836.4,5.00,000.00,027.4,025.3,000.0,035.6,029.0,30.1,0001.2,0009.46,0020.22,0007.73
2023-08-22 18:10:00,SystemResetWarning,0836.4,5.00,000.00,027.4,025.7,000.0,035.7,029.2,30.0,0001.6,0009.55,0021.04,0007.79
2023-08-22 18:11:00,SystemResetWarning,0836.4,5.00,000.00,027.5,026.1,000.0,035.7,029.3,28.8,0001.4,0009.55,0020.16,0007.84
2023-08-22 18:12:00,SystemResetWarning,0836.4,4.99,000.00,027.5,026.1,000.0,035.7,029.3,28.5,0001.3,0009.50,0019.44,0007.88
2023-08-22 18:13:00,SystemResetWarning,0836.4,4.98,000.00,027.5,024.8,000.0,035.6,029.1,27.4,0001.1,0009.49,0019.55,0007.94
2023-08-22 18:14:00,SystemResetWarning,0836.4,5.02,000.00,027.4,024.3,000.0,035.5,028.9,27.6,0001.2,0009.55,0019.67,0007.97
2023-08-22 18:15:00,SystemResetWarning,0836.3,5.01,000.00,027.4,024.6,000.0,035.6,029.0,28.6,0001.0,0009.61,0019.37,0008.02
2023-08-22 18:16:00,SystemResetWarning,0836.4,5.00,000.00,027.4,025.0,000.0,035.6,029.0,28.9,0001.2,0009.59,0018.69,0008.04
2023-08-22 18:17:00,SystemResetWarning,0836.4,5.00,000.00,027.4,025.5,000.0,035.7,029.2,28.5,0001.3,0009.64,0019.17,0008.07
2023-08-22 18:18:00,SystemResetWarning,0836.3,5.00,000.00,027.5,025.9,000.0,035.7,029.3,28.2,0001.3,0009.63,0019.91,0008.07
2023-08-22 18:19:00,SystemResetWarning,0836.3,4.99,000.00,027.5,025.8,000.0,035.7,029.3,28.5,0001.5,0009.66,0020.63,0008.11
2023-08-22 18:20:00,SystemResetWarning,0836.3,4.99,000.00,027.5,024.6,000.0,035.6,029.0,28.6,0001.7,0009.70,0021.30,0008.15
2023-08-22 18:21:00,SystemResetWarning,0836.2,5.02,000.00,027.4,024.1,000.0,035.5,028.9,28.5,0001.7,0009.73,0021.56,0008.15
2023-08-22 18:22:00,SystemResetWarning,0836.2,4.99,000.00,027.4,024.5,000.0,035.6,028.9,29.0,0001.9,0009.77,0021.49,0008.17
2023-08-22 18:23:00,SystemResetWarning,0836.3,5.00,000.00,027.4,024.9,000.0,035.6,029.0,28.6,0002.0,0009.84,0022.07,0008.19
2023-08-22 18:24:00,SystemResetWarning,0836.3,5.00,000.00,027.4,025.4,000.0,035.7,029.2,27.5,0002.3,0009.86,0021.64,0008.18
2023-08-22 18:25:00,SystemResetWarning,0836.2,5.01,000.00,027.5,025.8,000.0,035.7,029.3,26.3,0002.2,0009.88,0022.40,0008.17
2023-08-22 18:26:00,SystemResetWarning,0836.2,5.00,000.00,027.5,026.1,000.0,035.7,029.4,26.6,0002.3,0009.87,0023.05,0008.15
2023-08-22 18:27:00,SystemResetWarning,0836.3,4.98,000.00,027.6,025.2,000.0,035.7,029.2,27.0,0001.9,0009.88,0023.24,0008.14
2023-08-22 18:28:00,SystemResetWarning,0836.2,5.00,000.00,027.5,024.2,000.0,035.6,029.0,24.1,0002.0,0009.87,0022.94,0008.13
2023-08-22 18:29:00,SystemResetWarning,0836.2,5.01,000.00,027.4,024.4,000.0,035.6,029.0,23.1,0001.9,0009.95,0022.26,0008.16
2023-08-22 18:30:00,SystemResetWarning,0836.2,5.00,000.00,027.4,024.8,000.0,035.6,029.0,23.1,0001.6,0009.96,0021.39,0008.15
2023-08-22 18:31:00,SystemResetWarning,0836.2,5.00,000.00,027.4,025.3,000.0,035.7,029.1,23.1,0001.5,0010.01,0021.53,0008.16
2023-08-22 18:32:00,SystemResetWarning,0836.2,5.00,000.00,027.5,025.7,000.0,035.7,029.3,22.6,0001.2,0009.99,0021.53,0008.13
2023-08-22 18:33:00,SystemResetWarning,0836.2,5.00,000.00,027.5,026.0,000.0,035.7,029.4,22.6,0001.0,0010.03,0021.13,0008.08
2023-08-22 18:34:00,SystemResetWarning,0836.2,4.98,000.00,027.5,025.0,000.0,035.7,029.1,23.2,0001.3,0009.93,0021.21,0008.03
2023-08-22 18:35:00,SystemResetWarning,0836.2,5.02,000.00,027.5,024.1,000.0,035.6,028.9,22.8,0001.0,0009.93,0021.63,0008.02
2023-08-22 18:36:00,SystemResetWarning,0836.1,5.01,000.00,027.4,024.4,000.0,035.6,028.9,21.9,0001.0,0009.89,0022.78,0008.00
2023-08-22 18:37:00,SystemResetWarning,0836.2,5.00,000.00,027.4,024.8,000.0,035.6,028.9,22.5,0000.8,0009.85,0022.34,0007.99
2023-08-22 18:38:00,SystemResetWarning,0836.2,5.00,000.00,027.4,025.2,000.0,035.7,029.1,23.8,0001.1,0009.91,0022.80,0007.99
2023-08-22 18:39:00,SystemResetWarning,0836.2,5.01,000.00,027.5,025.6,000.0,035.7,029.2,24.5,0001.4,0009.94,0023.28,0007.97
2023-08-22 18:40:00,SystemResetWarning,0836.2,4.99,000.00,027.5,025.9,000.0,035.7,029.3,24.5,0001.1,0009.93,0024.73,0007.95
2023-08-22 18:41:00,SystemResetWarning,0836.2,4.99,000.00,027.5,024.9,000.0,035.6,029.1,23.1,0001.3,0009.92,0025.02,0007.94
2023-08-22 18:42:00,SystemResetWarning,0836.1,5.01,000.00,027.4,024.1,000.0,035.6,028.9,24.0,0001.3,0009.92,0024.44,0007.91
2023-08-22 18:43:00,SystemResetWarning,0836.1,5.01,000.00,027.4,024.5,000.0,035.6,028.9,24.1,0001.6,0009.85,0024.23,0007.89
2023-08-22 18:44:00,SystemResetWarning,0836.1,4.99,000.00,027.4,024.8,000.0,035.6,028.9,21.8,0001.7,0009.78,0024.96,0007.88
2023-08-22 18:45:00,SystemResetWarning,0836.1,5.01,000.00,027.4,025.3,000.0,035.7,029.0,22.3,0001.4,0009.78,0025.48,0007.88
2023-08-22 18:46:00,SystemResetWarning,0836.1,5.00,000.00,027.4,025.7,000.0,035.7,029.2,22.0,0001.5,0009.72,0026.77,0007.88
2023-08-22 18:47:00,SystemResetWarning,0836.1,5.00,000.00,027.5,025.9,000.0,035.7,029.3,22.5,0001.5,0009.74,0025.59,0007.88
2023-08-22 18:48:00,SystemResetWarning,0836.1,4.98,000.00,027.5,024.8,000.0,035.6,029.1,22.2,0001.8,0009.74,0025.22,0007.87
2023-08-22 18:49:00,SystemResetWarning,0836.1,5.01,000.00,027.4,024.1,000.0,035.5,028.9,21.8,0001.9,0009.78,0025.46,0007.87
2023-08-22 18:50:00,SystemResetWarning,0836.1,5.02,000.00,027.4,024.5,000.0,035.5,028.9,22.0,0001.7,0009.73,0026.34,0007.85
2023-08-22 18:51:00,SystemResetWarning,0836.1,5.00,000.00,027.4,024.8,000.0,035.6,029.0,22.3,0001.9,0009.72,0025.63,0007.86
2023-08-22 18:52:00,SystemResetWarning,0836.1,5.00,000.00,027.4,025.3,000.0,035.7,029.1,22.6,0001.9,0009.72,0026.31,0007.86
2023-08-22 18:53:00,SystemResetWarning,0836.1,5.01,000.00,027.5,025.7,000.0,035.7,029.2,22.5,0002.1,0009.68,0026.50,0007.85
2023-08-22 18:54:00,SystemResetWarning,0836.1,4.99,000.00,027.5,025.8,000.0,035.7,029.3,22.6,0001.9,0009.75,0025.96,0007.86
2023-08-22 18:55:00,SystemResetWarning,0836.1,4.98,000.00,027.5,024.7,000.0,035.6,029.0,23.8,0001.8,0009.78,0025.17,0007.88
2023-08-22 18:56:00,SystemResetWarning,0836.1,5.02,000.00,027.4,024.0,000.0,035.5,028.8,24.2,0001.9,0009.79,0024.77,0007.89
2023-08-22 18:57:00,SystemResetWarning,0836.1,5.01,000.00,027.4,024.4,000.0,035.5,028.9,23.2,0001.6,0009.83,0024.22,0007.87
2023-08-22 18:58:00,SystemResetWarning,0836.1,5.00,000.00,027.3,024.8,000.0,035.6,028.9,23.8,0001.5,0009.74,0023.51,0007.85
2023-08-22 18:59:00,SystemResetWarning,0836.1,5.00,000.00,027.4,025.2,000.0,035.6,029.1,23.9,0001.3,0009.69,0023.16,0007.82
